Location: Newark
(35.2672°N, 80.7344°W)
Time: 10:18:03
(UTC+00:00)

SR - All Passes

Search period start: 27 January 2020 00:00
Search period end: 06 February 2020 00:00
Orbit: 574 x 882 km, 66.7° (Epoch: 26 January)

Date Brightness Start Highest point End Pass type
(mag) Time Alt. Az. Time Alt. Az. Time Alt. Az.
27 Jan - 02:25:05 10° S 02:30:41 57° ESE 02:36:30 10° NE night (unlit)
27 Jan - 04:08:42 10° W 04:13:12 22° NW 04:17:46 10° N night (unlit)
27 Jan - 11:10:46 10° N 11:14:56 22° NE 11:18:52 10° E visible
27 Jan - 12:52:12 10° NW 12:57:19 46° WSW 13:01:59 10° S daylight
28 Jan - 01:36:27 10° SSE 01:41:16 28° ESE 01:46:13 10° NE night (unlit)
28 Jan - 03:17:43 10° SW 03:23:10 41° WNW 03:28:45 10° NNE night (unlit)
28 Jan - 10:22:47 10° NNE 10:24:41 12° NE 10:26:32 10° ENE visible
28 Jan - 12:02:20 10° NNW 12:07:46 81° ENE 12:12:41 10° SSE daylight
29 Jan - 00:49:22 10° SE 00:52:01 13° ESE 00:54:42 10° ENE night (unlit)
29 Jan - 02:27:35 10° SSW 02:33:21 78° WNW 02:39:20 10° NNE night (unlit)
29 Jan - 04:13:42 10° WNW 04:16:25 13° NW 04:19:10 10° NNW night (unlit)
29 Jan - 11:12:53 10° NNW 11:17:59 39° ENE 11:22:36 10° SE visible
29 Jan - 12:55:41 10° NW 12:59:42 22° WSW 13:03:27 10° SSW daylight
30 Jan - 01:38:11 10° S 01:43:45 54° ESE 01:49:31 10° NE visible
30 Jan - 03:21:34 10° WSW 03:26:12 24° NW 03:30:54 10° N night (unlit)
30 Jan - 10:23:56 10° N 10:27:56 20° NE 10:31:41 10° E visible
30 Jan - 12:05:13 10° NW 12:10:22 49° WSW 12:15:02 10° S daylight
31 Jan - 00:49:38 10° SSE 00:54:21 26° ESE 00:59:10 10° NE visible
31 Jan - 02:30:41 10° SW 02:36:11 43° WNW 02:41:51 10° NNE visible
31 Jan - 09:36:16 10° NNE 09:37:38 11° NE 09:39:00 10° ENE visible
31 Jan - 11:15:24 10° NNW 11:20:47 76° ENE 11:25:39 10° SSE visible
31 Jan - 13:01:34 10° W 13:01:55 10° W 13:02:17 10° WSW daylight
01 Feb - 00:02:49 10° SE 00:05:06 12° ESE 00:07:24 10° ENE visible
01 Feb - 01:40:36 10° SSW 01:46:23 83° WNW 01:52:23 10° NNE visible
01 Feb - 03:26:25 10° WNW 03:29:24 14° NW 03:32:24 10° NNW night (unlit)
01 Feb - 10:26:00 10° N 10:30:58 36° NE 10:35:32 10° ESE visible
01 Feb - 12:08:37 10° NW 12:12:45 24° WSW 12:16:36 10° SSW daylight
02 Feb - 00:51:15 10° S 00:56:49 50° ESE 01:02:32 10° NE visible
02 Feb - 02:34:27 10° WSW 02:39:11 25° NW 02:44:01 10° N visible
02 Feb - 09:37:06 10° N 09:40:54 19° NE 09:44:30 10° E visible
02 Feb - 11:18:15 10° NW 11:23:24 53° WSW 11:28:05 10° S visible
03 Feb - 00:02:48 10° SSE 00:07:24 25° ESE 00:12:07 10° NE visible
03 Feb - 01:43:38 10° SW 01:49:12 46° WNW 01:54:55 10° NNE visible
03 Feb - 08:50:07 10° NE 08:50:36 10° NE 08:51:05 10° NE visible
03 Feb - 10:28:27 10° NNW 10:33:49 71° ENE 10:38:39 10° SSE visible
03 Feb - 12:13:42 10° W 12:14:59 11° W 12:16:16 10° WSW daylight
03 Feb - 23:16:22 10° ESE 23:18:11 11° E 23:20:01 10° E visible
04 Feb - 00:53:37 10° SSW 00:59:26 87° WNW 01:05:25 10° NNE visible
04 Feb - 02:39:09 10° W 02:42:23 15° NW 02:45:37 10° NNW visible
04 Feb - 09:39:06 10° N 09:43:58 34° NE 09:48:26 10° ESE visible
04 Feb - 11:21:35 10° NW 11:25:48 25° WSW 11:29:44 10° SSW visible
05 Feb - 00:04:21 10° S 00:09:52 47° ESE 00:15:32 10° NE visible
05 Feb - 01:47:20 10° WSW 01:52:11 26° NW 01:57:07 10° N visible
05 Feb - 08:50:15 10° N 08:53:52 18° NE 08:57:18 10° E visible
05 Feb - 10:31:15 10° NW 10:36:26 57° WSW 10:41:07 10° S visible
05 Feb - 23:16:00 10° SSE 23:20:29 23° ESE 23:25:03 10° NE visible
